(217884) = 2001 RK42

Discovered at Socorro on 2001-09-11 by LINEAR.

Orbit

Orbit type: Main Belt

Note: WebGL enabled browser required.

epoch2024-03-31.0
epoch JD2460400.5
perihelion date2022-03-17.72408
perihelion JD2459656.22409
argument of perihelion (°)352.28205
ascending node (°)15.05720
inclination (°)14.34159
eccentricity0.2001005
perihelion distance (AU)2.0396797
Tisserand w.r.t. Jupiter3.4
ΔV w.r.t. Earth (km/sec)10.0
semimajor axis (AU)2.5499199
mean anomaly (°)180.15579
mean daily motion (°/day)0.24205510
aphelion distance (AU)3.060
period (years)4.07
P-vector [x]0.99071991
P-vector [y]0.13414327
P-vector [z]0.02190075
Q-vector [x]-0.11972166
Q-vector [y]0.78496706
Q-vector [z]0.60785971
absolute magnitude16.83
phase slope0.15
uncertainty0
referenceE2024-GI3
observations used218
oppositions16
arc length (days)11142
first opposition used1993
last opposition used2024
residual rms (arc-secs)0.75
perturbers coarse indicatorM-v
perturbers precise indicator003Ek
first observation date used1993-10-10.0
last observation date used2024-04-12.0
computer nameMPCLINUX
Minimum Orbit Intersection Distances (in AU)
for orbit epoch: 2460400.5, reference: E2024-GI3
Mercury1.681
Venus1.31378
Earth1.04005
Mars0.63453
Jupiter2.39168
Saturn6.39918
Uranus15.4142
Neptune27.5225

Observations

212 total observations over interval: 1993 10 10.11979 – 2024 03 02.566682
These data are available for download (format description).

Date (UT) J2000 RA J2000 Dec Magn Location Ref
1993 10 10.11979 01 04 52.47 +07 59 59.9 18.7   809 – European Southern Observatory, La Silla MPS 139247
1993 10 10.14063 01 04 51.11 +08 00 05.6   809 – European Southern Observatory, La Silla MPS 139247
1993 10 10.16146 01 04 49.38 +08 00 11.7   809 – European Southern Observatory, La Silla MPS 139247
1997 10 03.48464 00 13 10.44 -03 41 40.5 18.4 R 608 – Haleakala-AMOS MPS 139247
2001 08 24.56631 23 53 19.91 -17 06 11.1 20.1   608 – Haleakala-AMOS MPS 37977
2001 08 24.57714 23 53 19.36 -17 06 11.7 20.7   608 – Haleakala-AMOS MPS 37977
2001 08 24.58800 23 53 18.81 -17 06 11.1 20.7   608 – Haleakala-AMOS MPS 37977
2001 08 25.33494 23 52 41.88 -17 06 04.4 18.9 R 699 – Lowell Observatory-LONEOS MPS 37977
2001 08 25.35443 23 52 40.79 -17 06 05.5   699 – Lowell Observatory-LONEOS MPS 37977
2001 08 25.37392 23 52 39.79 -17 06 04.4   699 – Lowell Observatory-LONEOS MPS 37977
2001 08 25.39346 23 52 38.74 -17 06 04.5   699 – Lowell Observatory-LONEOS MPS 37977
2001 09 11.27963 23 35 15.10 -16 44 26.1 18.9   704 – Lincoln Laboratory ETS, New Mexico MPS 35007
2001 09 11.30935 23 35 12.98 -16 44 21.9 19.0   704 – Lincoln Laboratory ETS, New Mexico MPS 35007
2001 09 11.32340 23 35 12.03 -16 44 19.6 19.3   704 – Lincoln Laboratory ETS, New Mexico MPS 35007
2001 09 12.32809 23 34 02.49 -16 41 30.0 18.8   704 – Lincoln Laboratory ETS, New Mexico MPS 35007
2001 09 12.34222 23 34 01.47 -16 41 27.2 19.1   704 – Lincoln Laboratory ETS, New Mexico MPS 35007
2001 09 12.37049 23 33 59.45 -16 41 22.1 19.0   704 – Lincoln Laboratory ETS, New Mexico MPS 35007
2001 09 12.38461 23 33 58.46 -16 41 19.4 19.2   704 – Lincoln Laboratory ETS, New Mexico MPS 35007
2001 09 17.26261 23 28 20.41 -16 24 36.9 19.3 R 699 – Lowell Observatory-LONEOS MPS 36249
2001 09 17.27821 23 28 19.23 -16 24 34.3   699 – Lowell Observatory-LONEOS MPS 36249
2001 09 17.29385 23 28 18.18 -16 24 29.4   699 – Lowell Observatory-LONEOS MPS 36249
2001 09 17.30950 23 28 17.11 -16 24 25.9   699 – Lowell Observatory-LONEOS MPS 36249
2001 09 21.26098 23 23 48.22 -16 07 01.8 19.3   644 – Palomar Mountain/NEAT MPS 36249
2001 09 21.28304 23 23 46.70 -16 06 55.4 19.0   644 – Palomar Mountain/NEAT MPS 36249
2001 09 21.30462 23 23 45.20 -16 06 49.2 19.2   644 – Palomar Mountain/NEAT MPS 36249
2001 09 25.19778 23 19 31.79 -15 46 11.6 19.3   704 – Lincoln Laboratory ETS, New Mexico MPS 49415
2001 09 25.21343 23 19 30.79 -15 46 07.3 19.3   704 – Lincoln Laboratory ETS, New Mexico MPS 49415
2001 09 25.22820 23 19 29.84 -15 46 00.9 19.0   704 – Lincoln Laboratory ETS, New Mexico MPS 49415
2001 09 25.24275 23 19 28.91 -15 45 56.5 19.2   704 – Lincoln Laboratory ETS, New Mexico MPS 49415
2001 10 10.20926 23 06 28.45 -13 56 51.1 19.5   644 – Palomar Mountain/NEAT MPS 37977
2001 10 10.23037 23 06 27.57 -13 56 40.4 19.6   644 – Palomar Mountain/NEAT MPS 37977
2001 10 10.25142 23 06 26.69 -13 56 29.4 19.7   644 – Palomar Mountain/NEAT MPS 37977
2001 10 16.10106 23 03 14.28 -13 02 48.4 19.8   644 – Palomar Mountain/NEAT MPS 39310
2001 10 16.12220 23 03 13.66 -13 02 36.8 19.8   644 – Palomar Mountain/NEAT MPS 39310
2001 10 16.14456 23 03 13.03 -13 02 23.4 19.5   644 – Palomar Mountain/NEAT MPS 39310
2003 03 07.266030 09 20 04.620 +32 38 00.55 21.52 V 645 – Apache Point-Sloan Digital Sky Survey MPS 139247
2003 03 07.269502 09 20 04.452 +32 37 59.92 22.44   645 – Apache Point-Sloan Digital Sky Survey MPS 139247
2005 07 27.41235 23 11 06.22 -26 53 49.5 20.3   644 – Palomar Mountain/NEAT MPS 139247
2005 07 27.43423 23 11 05.73 -26 53 53.5 19.8   644 – Palomar Mountain/NEAT MPS 139247
2005 07 27.45491 23 11 05.25 -26 53 57.5 19.8   644 – Palomar Mountain/NEAT MPS 139247
2005 08 05.47434 23 06 39.72 -27 21 54.2 19.3   644 – Palomar Mountain/NEAT MPS 139247
2005 08 05.48497 23 06 39.28 -27 21 56.2 19.3   644 – Palomar Mountain/NEAT MPS 139247
2005 08 05.49537 23 06 38.85 -27 21 57.5 19.3   644 – Palomar Mountain/NEAT MPS 139247
2005 08 28.65407 22 44 19.24 -27 48 38.9 18.5 V E12 – Siding Spring Survey MPS 140089
2005 08 28.66278 22 44 18.60 -27 48 37.9 18.8 V E12 – Siding Spring Survey MPS 140089
2005 08 28.67154 22 44 18.02 -27 48 36.6 19.3 V E12 – Siding Spring Survey MPS 140089
2005 08 28.68027 22 44 17.30 -27 48 36.0 19.3 V E12 – Siding Spring Survey MPS 140089
2005 12 29.08023 23 21 59.72 -03 35 07.4   291 – LPL/Spacewatch II MPS 156418
2005 12 29.08439 23 22 00.11 -03 35 03.3   291 – LPL/Spacewatch II MPS 156418
2005 12 29.08871 23 22 00.53 -03 34 58.6   291 – LPL/Spacewatch II MPS 156418
2008 04 14.36042 13 38 08.59 -15 00 03.0 20.5 V G96 – Mt. Lemmon Survey MPS 246680
2008 04 14.36713 13 38 08.19 -15 00 02.3 21.1 V G96 – Mt. Lemmon Survey MPS 246680
2008 04 14.37383 13 38 07.80 -15 00 01.4 20.9 V G96 – Mt. Lemmon Survey MPS 246680
2008 04 14.38052 13 38 07.36 -15 00 00.7 21.5 V G96 – Mt. Lemmon Survey MPS 246680
2009 08 01.66897 22 09 46.76 -35 33 17.7 19.1 V E12 – Siding Spring Survey MPS 290119
2009 08 01.68227 22 09 46.00 -35 33 20.6 19.4 V E12 – Siding Spring Survey MPS 290119
2009 08 01.69561 22 09 45.18 -35 33 22.3 19.6 V E12 – Siding Spring Survey MPS 290119
2009 08 01.70892 22 09 44.42 -35 33 26.1 19.6 V E12 – Siding Spring Survey MPS 290119
2009 08 15.56272 21 54 34.84 -35 59 28.2 19.5 V E12 – Siding Spring Survey MPS 291664
2009 08 15.56973 21 54 34.34 -35 59 28.5 19.4 V E12 – Siding Spring Survey MPS 291664
2009 08 15.57677 21 54 33.80 -35 59 27.9 19.4 V E12 – Siding Spring Survey MPS 291664
2009 08 15.58396 21 54 33.26 -35 59 28.0 18.9 V E12 – Siding Spring Survey MPS 291664
2012 04 16.39363 13 13 56.763 -11 02 14.36 20.8 w F51 – Pan-STARRS 1, Haleakala MPS 421663
2012 04 16.40683 13 13 55.946 -11 02 12.73 20.8 w F51 – Pan-STARRS 1, Haleakala MPS 421663
2012 04 16.42004 13 13 55.143 -11 02 11.00 21.0 w F51 – Pan-STARRS 1, Haleakala MPS 421663
2012 04 16.43328 13 13 54.319 -11 02 09.48 20.9 w F51 – Pan-STARRS 1, Haleakala MPS 421663
2014 12 27.52044 08 42 38.607 +40 51 20.41 20.5 w F51 – Pan-STARRS 1, Haleakala MPS 560720
2014 12 27.54614 08 42 37.131 +40 51 30.19 20.6 w F51 – Pan-STARRS 1, Haleakala MPS 560720
2015 01 11.51934 08 25 58.289 +42 09 28.95 20.1 i F51 – Pan-STARRS 1, Haleakala MPS 562115
2015 01 11.53135 08 25 57.327 +42 09 31.61 20.2 i F51 – Pan-STARRS 1, Haleakala MPS 562115
2015 01 11.54339 08 25 56.388 +42 09 34.14 20.2 i F51 – Pan-STARRS 1, Haleakala MPS 562115
2015 01 13.50798 08 23 24.762 +42 16 14.66 20.3 i F51 – Pan-STARRS 1, Haleakala MPS 586758
2015 01 13.52018 08 23 23.780 +42 16 16.78 20.4 i F51 – Pan-STARRS 1, Haleakala MPS 586758
2015 01 13.53242 08 23 22.802 +42 16 19.22 20.2 i F51 – Pan-STARRS 1, Haleakala MPS 586758
2015 01 13.54463 08 23 21.815 +42 16 21.26 20.1 i F51 – Pan-STARRS 1, Haleakala MPS 586758
2015 02 11.40950 07 48 28.477 +41 52 29.84 20.3 r F51 – Pan-STARRS 1, Haleakala MPS 578674
2015 02 11.43377 07 48 27.150 +41 52 23.44 20.4 r F51 – Pan-STARRS 1, Haleakala MPS 578674
2015 02 11.44588 07 48 26.390 +41 52 19.70 20.7 r F51 – Pan-STARRS 1, Haleakala MPS 578674
2015 02 12.39837 07 47 35.682 +41 48 00.10 20.7 w F51 – Pan-STARRS 1, Haleakala MPS 578674
2015 02 12.41054 07 47 35.012 +41 47 56.58 20.7 w F51 – Pan-STARRS 1, Haleakala MPS 578674
2015 02 12.42266 07 47 34.370 +41 47 53.03 20.8 w F51 – Pan-STARRS 1, Haleakala MPS 578674
2016 03 04.53766 13 29 20.171 -08 05 44.27 21.4 w F51 – Pan-STARRS 1, Haleakala MPS 691934
2016 03 04.55006 13 29 19.741 -08 05 44.10 21.6 w F51 – Pan-STARRS 1, Haleakala MPS 691934
2016 03 12.49875 13 24 18.138 -08 03 20.67 21.2 w F51 – Pan-STARRS 1, Haleakala MPS 695173
2016 03 12.51145 13 24 17.578 -08 03 19.96 21.3 w F51 – Pan-STARRS 1, Haleakala MPS 695173
2016 03 12.52410 13 24 17.013 -08 03 19.58 21.1 w F51 – Pan-STARRS 1, Haleakala MPS 695173
2016 03 12.53675 13 24 16.443 -08 03 18.93 21.2 w F51 – Pan-STARRS 1, Haleakala MPS 695173
2016 04 09.47475 12 58 57.202 -07 17 32.04 20.8 w F51 – Pan-STARRS 1, Haleakala MPS 703191
2016 04 09.48859 12 58 56.360 -07 17 30.22 20.8 w F51 – Pan-STARRS 1, Haleakala MPS 703191
2016 04 09.51513 12 58 54.748 -07 17 26.70 21.0 w F51 – Pan-STARRS 1, Haleakala MPS 703191
2016 04 10.45376 12 57 59.041 -07 15 23.53 21.1 w F51 – Pan-STARRS 1, Haleakala MPS 703191
2016 04 10.46682 12 57 58.246 -07 15 21.92 21.2 w F51 – Pan-STARRS 1, Haleakala MPS 703191
2016 04 10.49324 12 57 56.639 -07 15 18.39 21.0 w F51 – Pan-STARRS 1, Haleakala MPS 703191
2016 04 14.25519 12 54 15.52 -07 07 07.5 21.5 V G96 – Mt. Lemmon Survey MPS 703191
2016 04 14.26021 12 54 15.21 -07 07 07.0 21.0 V G96 – Mt. Lemmon Survey MPS 703191
